Regional Weather Roundup
Issued by NWS

Home | Current Version | Previous Version | Text Only | Print | Product List | Glossary On
Versions: 1 2 3 4 5 6 7 8 9 10 11 12 13 14 15 16 17 18 19 20 21 22 23 24 25 26 27 28 29 30 31 32 33 34 35 36 37 38 39 40 41 42 43 44 45 46 47 48 49 50
000
ASUS45 KBOU 282207
RWRCO

WEATHER ROUNDUP FOR COLORADO
NATIONAL WEATHER SERVICE DENVER/BOULDER CO
400 PM MDT THU JUL 28 2016

NOTE: "FAIR" INDICATES FEW OR NO CLOUDS BELOW 12000 FEET WITH NO
SIGNIFICANT WEATHER AND/OR OBSTRUCTIONS TO VISIBILITY.

COZ001>005-013-030-031-282300-
...NORTHWEST COLORADO...

CITY           SKY/WX    TMP DP  RH WIND       PRES   REMARKS
CRAIG          FAIR      95  23   7 NW17G25   30.17F
HAYDEN         FAIR      90  28  11 W16G25    30.19F
MEEKER         FAIR      94  25   8 NW16G28   30.17F
MOUNT WERNER   NOT AVBL
STEAMBOAT SPGS FAIR      88  29  12 SW14G21   30.21F
WALDEN         FAIR      81  23  12 W14G24    30.33F
$$

COZ006>008-011-282300-
...WEST CENTRAL VALLEYS...

CITY           SKY/WX    TMP DP  RH WIND       PRES   REMARKS
GRAND JUNCTION FAIR     102  25   6 W8        30.02F
MONTROSE       FAIR      97  28   8 N9        30.13F
EAGLE          MOSUNNY   91  28  10 MISG      30.19F
RIFLE          FAIR      95  27   9 NW13      30.08F
DELTA          NOT AVBL
NUCLA          NOT AVBL
$$

COZ017>023-064>068-282300-
...SOUTHWEST COLORADO...

CITY           SKY/WX    TMP DP  RH WIND       PRES   REMARKS
DURANGO        FAIR      85  31  14 S6        30.23F
CORTEZ         FAIR      96  34  11 MISG      30.13F
PAGOSA SPRINGS FAIR      86  21   9 W8        30.32F
TELLURIDE      FAIR      82  22  11 W21G30    30.46F
WOLF CREEK PAS FAIR      64  34  32 SW10G17   30.71F
$$

COZ009-010-012-014-032>034-037-058>063-282300-
...CENTRAL COLORADO...

CITY           SKY/WX    TMP DP  RH WIND       PRES   REMARKS
ASPEN          FAIR      86  24  10 NW15G23   30.30F
BUENA VISTA    FAIR      87  17   7 NW16G29   30.30F
COPPER MTN     FAIR      64  16  15 W15G23    30.69F
BERTHOUD PASS  RAIN      55  41  58 MISG      30.72R
COTTONWOOD PAS FAIR      79   1   5 N6        30.48F
GUNNISON       FAIR      88  27  11 W6G17     30.32F
KREMMLING      FAIR      88   7   5 NW17G28   30.28S
LEADVILLE      FAIR      72  20  14 N16G26    30.49F
MONARCH PASS   CLOUDY    70  23  17 MISG      30.79F
SALIDA         FAIR      90  20   8 CALM      30.32F
SUNLIGHT       NOT AVBL
WILKERSON PASS PTSUNNY   70  36  28 W5        30.65F
$$

COZ069>075-282300-
...SAN LUIS VALLEY/SANGRE DE CRISTO MOUNTAINS...

CITY           SKY/WX    TMP DP  RH WIND       PRES   REMARKS
ALAMOSA        FAIR      83  39  21 SW20G31   30.28F
LA VETA PASS   PTSUNNY   75  30  19 N3        30.52F
SAGUACHE       FAIR      90  27  10 NW15G28   30.29F
$$

COZ035-036-038>040-282300-
...NORTHERN COLORADO FRONT RANGE...

CITY           SKY/WX    TMP DP  RH WIND       PRES   REMARKS
DENVER INTL AP FAIR      84  54  35 VRB6      30.17F
DMNS CITY PARK   N/A     82  55  38 W5G16     30.17S
AURORA         NOT AVBL
FRONT RANGE AP PTSUNNY   84  57  39 N13G18    30.19F
ERIE MUNI ARPT PTSUNNY   81  55  40 NE9       30.17S
BOULDER MUN AP PTSUNNY   81  54  39 CALM      30.18F
CENTENNIAL     FAIR      82  50  32 N5G16     30.18F
BROOMFIELD     PTSUNNY   82  55  39 N7G13     30.21F
LONGMONT       NOT AVBL
$$

COZ041-046-047-076>085-087-088-282300-
...PIKES PEAK/PALMER DIVIDE AND SOUTHERN FOOTHILLS...

CITY           SKY/WX    TMP DP  RH WIND       PRES   REMARKS
COLO. SPRINGS  PTSUNNY   89  47  23 E17G28    30.18F
A. F. ACADEMY  FAIR      82  52  34 N14       30.22S
SCHRIEVER AFB  NOT AVBL
ELLICOTT       NOT AVBL
FALCON         FAIR      85  49  28 NE13G20   30.26F
FORT CARSON    NOT AVBL
LIMON          FAIR      86  55  34 E17G24    30.12F
MONUMENT HILL  FAIR      77  52  41 NE7       30.29F
TRINIDAD       NOT AVBL
$$

COZ042>045-048>051-090-091-282300-
...NORTHEAST COLORADO...

CITY           SKY/WX    TMP DP  RH WIND       PRES   REMARKS
GREELEY ARPT   FAIR      79  57  47 NE10G17   30.17F
AKRON          FAIR      76  59  55 NE10      30.15F
BURLINGTON     FAIR      84  61  45 E15       30.09F
WRAY           NOT AVBL
STERLING       NOT AVBL
HOLYOKE        NOT AVBL
FORT MORGAN    NOT AVBL
$$

COZ086-089-092>099-282300-
...SOUTHEAST COLORADO...

CITY           SKY/WX    TMP DP  RH WIND       PRES   REMARKS
PUEBLO         FAIR     101  35  10 N7        30.01F
LA JUNTA       FAIR      98  52  21 NE12G20   29.98F
LAMAR          FAIR      94  58  29 SE23G35   29.97S
SPRINGFIELD      N/A     79  54  41 NW21      30.05R
$$



USA.gov is the U.S. government's official web portal to all federal, state and local government web resources and services.